User: anonymous   Login
Location: Unspecified
(0.0000°N, 0.0000°E)
Time: 18:48:08
(UTC+00:00)
Language:

Vela 1A - Orbit

View from above orbital plane
View from above orbital plane
View from above satellite
View from above satellite

Ground track
Ground track

The orbit data is extracted from the following two-line orbital elements,

1   692U 63039C   17187.67473524 -.00000705 +00000-0 +00000-0 0  9993
2   692 034.1233 351.1525 5709338 193.3642 359.5475 00.22178289043352
Epoch (UTC): 06 July 2017 16:11:37
Eccentricity: 0.5709338
inclination: 34.1233°
perigee height: 43087 km
apogee height: 174729 km
right ascension of ascending node: 351.1525°
argument of perigee: 193.3642°
revolutions per day: 0.22178289
mean anomaly at epoch: 359.5475°
orbit number at epoch: 4335

The dashed part of the orbit path shows where the satellite is in the earth's shadow,  

DLR